Harlan, IA

3:44 AM CDT on June 24, 2017 (GMT -0500)
Harlan Municipal

Weather History for KHNR - April, 2013

Change the Weather History Date:

Monday, April 1, 2013

  Actual Average Record
Temperature  
Mean Temperature 24 °F -  
Max Temperature 37 °F 54 °F 88 °F (1956)
Min Temperature 12 °F 32 °F 12 °F (2013)
Degree Days  
Heating Degree Days 40    
Moisture  
Dew Point 18 °F    
Average Humidity 74    
Maximum Humidity 93    
Minimum Humidity 41    
Precipitation  
Precipitation 0.00 in - - ()
Sea Level Pressure  
Sea Level Pressure 30.30 in    
Wind  
Wind Speed 9 mph (NNW)    
Max Wind Speed 17 mph    
Max Gust Speed 24 mph    
Visibility 10 miles    
Events      
Averages and records for this station are not official NWS values.
T = Trace of Precipitation, MM = Missing Value Source: NWS Daily Summary

Daily Weather History Graph

Daily Weather History Graph

Search for Another Location

Airport or City:

Trip Planner

Search our weather history database for the weather conditions in past years. The results will help you decide how hot, cold, wet, or windy it might be!

Date:

Astronomy

Apr. 01, 2013 Rise Set
Actual Time 7:03 AM CDT 7:47 PM CDT
Civil Twilight 6:35 AM CDT 8:15 PM CDT
Nautical Twilight 6:02 AM CDT 8:48 PM CDT
Astronomical Twilight 5:28 AM CDT 9:22 PM CDT
Moon 12:59 AM CDT (4/1) 10:48 AM CDT (4/1)
Length of Visible Light 13h 39m
Length of Day
12h 43m
Waning Gibbous, 67% of the Moon is Illuminated
Apr 1
Waning Gibbous
Apr 2
Last Quarter
Apr 10
New
Apr 18
First Quarter
Apr 25
Full

Hourly Weather History & Observations

Time (CDT) Temp. Windchill Dew Point Humidity Pressure Visibility Wind Dir Wind Speed Gust Speed Precip Events Conditions
12:15 AM 28.4 °F 22.2 °F 26.6 °F 93% 30.18 in 10.0 mi North 5.8 mph - N/A   Scattered Clouds
12:35 AM 28.4 °F 19.7 °F 26.6 °F 93% 30.18 in 10.0 mi NNW 9.2 mph - N/A   Mostly Cloudy
12:55 AM 28.4 °F 18.0 °F 24.8 °F 86% 30.19 in 10.0 mi NNW 12.7 mph - N/A   Scattered Clouds
1:15 AM 26.6 °F 16.8 °F 24.8 °F 93% 30.21 in 10.0 mi NNW 10.4 mph - N/A   Clear
1:35 AM 26.6 °F 18.2 °F 23.0 °F 86% 30.21 in 10.0 mi North 8.1 mph - N/A   Clear
1:55 AM 24.8 °F 15.3 °F 21.2 °F 86% 30.21 in 10.0 mi North 9.2 mph - N/A   Clear
2:15 AM 24.8 °F 15.3 °F 19.4 °F 80% 30.22 in 10.0 mi NNW 9.2 mph - N/A   Clear
2:35 AM 21.2 °F 12.6 °F 19.4 °F 93% 30.22 in 10.0 mi North 6.9 mph - N/A   Clear
2:55 AM 21.2 °F 11.7 °F 17.6 °F 86% 30.23 in 10.0 mi North 8.1 mph - N/A   Clear
3:15 AM 21.2 °F 10.9 °F 17.6 °F 86% 30.23 in 10.0 mi North 9.2 mph - N/A   Clear
3:35 AM 21.2 °F 11.7 °F 17.6 °F 86% 30.23 in 10.0 mi North 8.1 mph - N/A   Clear
4:15 AM 17.6 °F 7.3 °F 15.8 °F 93% 30.24 in 10.0 mi NNW 8.1 mph - N/A   Clear
4:35 AM 15.8 °F 8.6 °F 14.0 °F 93% 30.25 in 10.0 mi NNW 4.6 mph - N/A   Clear
4:55 AM 17.6 °F 7.3 °F 15.8 °F 93% 30.25 in 10.0 mi NNW 8.1 mph - N/A   Clear
5:15 AM 17.6 °F 7.3 °F 15.8 °F 93% 30.26 in 10.0 mi NNW 8.1 mph - N/A   Clear
5:35 AM 17.6 °F 9.3 °F 14.0 °F 86% 30.27 in 10.0 mi NNW 5.8 mph - N/A   Clear
5:55 AM 15.8 °F 5.1 °F 12.2 °F 86% 30.28 in 10.0 mi NW 8.1 mph - N/A   Clear
6:15 AM 15.8 °F 10.2 °F 12.2 °F 86% 30.29 in 10.0 mi NW 3.5 mph - N/A   Clear
6:35 AM 15.8 °F 4.2 °F 12.2 °F 86% 30.30 in 10.0 mi WNW 9.2 mph - N/A   Clear
6:55 AM 15.8 °F 7.2 °F 12.2 °F 86% 30.31 in 10.0 mi NW 5.8 mph - N/A   Clear
7:15 AM 12.2 °F 2.9 °F 10.4 °F 92% 30.31 in 10.0 mi NW 5.8 mph - N/A   Clear
7:35 AM 15.8 °F 4.2 °F 14.0 °F 93% 30.32 in 10.0 mi WNW 9.2 mph - N/A   Scattered Clouds
7:55 AM 17.6 °F 5.7 °F 15.8 °F 93% 30.33 in 10.0 mi NW 10.4 mph - N/A   Mostly Cloudy
8:15 AM 17.6 °F 5.7 °F 15.8 °F 93% 30.33 in 10.0 mi NW 10.4 mph - N/A   Scattered Clouds
8:35 AM 19.4 °F 7.2 °F 15.8 °F 86% 30.33 in 10.0 mi NNW 11.5 mph - N/A   Clear
8:55 AM 21.2 °F 8.3 °F 17.6 °F 86% 30.34 in 10.0 mi NW 13.8 mph - N/A   Clear
9:15 AM 21.2 °F 8.9 °F 17.6 °F 86% 30.35 in 10.0 mi NNW 12.7 mph - N/A   Clear
9:35 AM 21.2 °F 8.3 °F 17.6 °F 86% 30.34 in 10.0 mi North 13.8 mph - N/A   Clear
9:55 AM 23.0 °F 10.6 °F 17.6 °F 80% 30.34 in 10.0 mi North 13.8 mph - N/A   Clear
10:15 AM 24.8 °F 14.0 °F 19.4 °F 80% 30.35 in 10.0 mi North 11.5 mph - N/A   Clear
10:35 AM 24.8 °F 13.4 °F 19.4 °F 80% 30.35 in 10.0 mi North 12.7 mph - N/A   Clear
10:55 AM 24.8 °F 12.9 °F 19.4 °F 80% 30.36 in 10.0 mi NNW 13.8 mph - N/A   Scattered Clouds
11:15 AM 26.6 °F 15.7 °F 19.4 °F 74% 30.37 in 10.0 mi NNW 12.7 mph - N/A   Scattered Clouds
11:35 AM 26.6 °F 16.2 °F 19.4 °F 74% 30.37 in 10.0 mi NNW 11.5 mph - N/A   Scattered Clouds
11:55 AM 26.6 °F 16.8 °F 21.2 °F 80% 30.37 in 10.0 mi NNW 10.4 mph 20.7 mph N/A   Scattered Clouds
12:15 PM 26.6 °F 16.2 °F 19.4 °F 74% 30.37 in 10.0 mi NNW 11.5 mph 16.1 mph N/A   Scattered Clouds
12:35 PM 28.4 °F 17.0 °F 21.2 °F 74% 30.37 in 10.0 mi NNW 15.0 mph - N/A   Scattered Clouds
12:55 PM 28.4 °F 18.0 °F 19.4 °F 69% 30.37 in 10.0 mi North 12.7 mph - N/A   Clear
1:15 PM 30.2 °F 18.9 °F 21.2 °F 69% 30.36 in 10.0 mi NNW 16.1 mph 19.6 mph N/A   Scattered Clouds
1:35 PM 30.2 °F 19.3 °F 19.4 °F 64% 30.35 in 10.0 mi NNW 15.0 mph 19.6 mph N/A   Clear
1:55 PM 32.0 °F 20.8 °F 19.4 °F 60% 30.34 in 10.0 mi North 17.3 mph - N/A   Clear
2:15 PM 33.8 °F 23.5 °F 19.4 °F 56% 30.33 in 10.0 mi North 16.1 mph 21.9 mph N/A   Clear
2:35 PM 33.8 °F 23.2 °F 19.4 °F 56% 30.33 in 10.0 mi North 17.3 mph 24.2 mph N/A   Clear
3:15 PM 35.6 °F 27.1 °F 17.6 °F 48% 30.33 in 10.0 mi NNE 12.7 mph 18.4 mph N/A   Clear
3:35 PM 35.6 °F 29.2 °F 17.6 °F 48% 30.32 in 10.0 mi North 8.1 mph 16.1 mph N/A   Clear
3:55 PM 35.6 °F 27.5 °F 17.6 °F 48% 30.32 in 10.0 mi North 11.5 mph 18.4 mph N/A   Clear
4:15 PM 35.6 °F 29.2 °F 17.6 °F 48% 30.32 in 10.0 mi NNW 8.1 mph 18.4 mph N/A   Clear
4:35 PM 35.6 °F 28.0 °F 15.8 °F 44% 30.31 in 10.0 mi NW 10.4 mph 16.1 mph N/A   Clear
4:55 PM 35.6 °F 27.5 °F 17.6 °F 48% 30.31 in 10.0 mi North 11.5 mph - N/A   Scattered Clouds
5:15 PM 37.4 °F 29.8 °F 17.6 °F 45% 30.30 in 10.0 mi North 11.5 mph 17.3 mph N/A   Scattered Clouds
5:35 PM 35.6 °F 27.1 °F 15.8 °F 44% 30.30 in 10.0 mi North 12.7 mph - N/A   Scattered Clouds
5:55 PM 37.4 °F 29.8 °F 15.8 °F 41% 30.30 in 10.0 mi North 11.5 mph - N/A   Clear
6:15 PM 35.6 °F 29.2 °F 15.8 °F 44% 30.30 in 10.0 mi North 8.1 mph - N/A   Clear
6:35 PM 35.6 °F 29.9 °F 15.8 °F 44% 30.30 in 10.0 mi North 6.9 mph - N/A   Clear
6:55 PM 35.6 °F 29.2 °F 15.8 °F 44% 30.30 in 10.0 mi NNW 8.1 mph - N/A   Clear
7:15 PM 35.6 °F 29.9 °F 15.8 °F 44% 30.30 in 10.0 mi North 6.9 mph - N/A   Clear
7:35 PM 33.8 °F 29.6 °F 17.6 °F 52% 30.30 in 10.0 mi North 4.6 mph - N/A   Clear
7:55 PM 30.2 °F 25.4 °F 17.6 °F 60% 30.30 in 10.0 mi North 4.6 mph - N/A   Clear
8:15 PM 28.4 °F 22.2 °F 17.6 °F 64% 30.30 in 10.0 mi NNW 5.8 mph - N/A   Clear
8:35 PM 26.6 °F 21.2 °F 17.6 °F 69% 30.30 in 10.0 mi NNW 4.6 mph - N/A   Clear
8:55 PM 26.6 °F - 19.4 °F 74% 30.31 in 10.0 mi Calm Calm - N/A   Clear
9:15 PM 26.6 °F - 17.6 °F 69% 30.32 in 10.0 mi Calm Calm - N/A   Clear
9:35 PM 23.0 °F - 17.6 °F 80% 30.33 in 10.0 mi Calm Calm - N/A   Clear
9:55 PM 24.8 °F - 17.6 °F 74% 30.33 in 10.0 mi Calm Calm - N/A   Clear
10:15 PM 23.0 °F - 17.6 °F 80% 30.33 in 10.0 mi Calm Calm - N/A   Clear
10:35 PM 21.2 °F - 17.6 °F 86% 30.33 in 10.0 mi Calm Calm - N/A   Clear
10:55 PM 21.2 °F - 17.6 °F 86% 30.33 in 10.0 mi Calm Calm - N/A   Clear
11:15 PM 21.2 °F - 17.6 °F 86% 30.33 in 10.0 mi Calm Calm - N/A   Clear
11:35 PM 21.2 °F - 17.6 °F 86% 30.33 in 10.0 mi Calm Calm - N/A   Clear
11:55 PM 21.2 °F - 19.4 °F 93% 30.33 in 10.0 mi Calm Calm - N/A   Clear